Location: Oberstdorf
(47.4188°N, 10.2969°E)
Time: 07:24:44
(UTC+02:00)

ISS - Visible Passes

Search period start: 29 March 2017 00:00
Search period end: 08 April 2017 00:00
Orbit: 399 x 409 km, 51.6° (Epoch: 29 March)

Date Brightness Start Highest point End Pass type
(mag) Time Alt. Az. Time Alt. Az. Time Alt. Az.
29 Mar -3.9 21:41:55 10° WSW 21:45:05 81° WNW 21:45:05 81° WNW visible
30 Mar -3.8 20:49:37 10° SW 20:52:50 62° SSE 20:55:19 16° ENE visible
30 Mar -1.6 22:26:17 10° W 22:28:00 26° WNW 22:28:00 26° WNW visible
31 Mar -3.2 21:33:43 10° W 21:36:56 53° NNW 21:38:02 34° NE visible
31 Mar -0.3 23:10:41 10° WNW 23:10:43 10° WNW 23:10:43 10° WNW visible
01 Apr -3.7 20:41:13 10° WSW 20:44:28 75° NNW 20:47:45 10° ENE visible
01 Apr -2.2 22:18:09 10° WNW 22:20:37 33° NNW 22:20:37 33° NNW visible
02 Apr -2.7 21:25:34 10° W 21:28:42 40° N 21:30:25 22° NE visible
02 Apr -0.7 23:02:24 10° WNW 23:03:04 15° WNW 23:03:04 15° WNW visible
03 Apr -3.0 20:32:58 10° W 20:36:10 49° NNW 20:39:22 10° ENE visible
03 Apr -2.6 22:09:55 10° WNW 22:12:46 38° N 22:12:46 38° N visible
04 Apr -2.6 21:17:22 10° WNW 21:20:26 37° N 21:22:25 18° ENE visible
04 Apr -1.1 22:53:59 10° WNW 22:55:04 19° WNW 22:55:04 19° WNW visible
05 Apr -2.7 20:24:46 10° WNW 20:27:52 39° N 20:30:58 10° ENE visible
05 Apr -3.1 22:01:32 10° WNW 22:04:40 48° N 22:04:40 48° N visible
06 Apr -2.8 21:09:02 10° WNW 21:12:09 40° N 21:14:15 18° ENE visible
06 Apr -1.5 22:45:31 10° WNW 22:46:54 23° WNW 22:46:54 23° WNW visible
07 Apr -3.9 21:53:02 10° WNW 21:56:18 72° NNE 21:56:28 70° NE visible
